,,PA_Meas_PMT16A,,PR_Meas_QMR101_102,,RH_Meas_QMH101,,SR_Meas_QMS101,,TA_Meas_QMH101,,GenWind,,GenWind,
time,status,PA,status,PR,status,RH,status,SR,status,TA,status,DirAvg,status,SpdAvg,
2011-06-21, 00:00:04,VALID,917.538,VALID,0,VALID,96.3676,VALID,0,VALID,20.1108,VALID,15,VALID,0.855078,
2011-06-21, 00:01:05,VALID,917.538,VALID,0,VALID,96.4133,VALID,0,VALID,20.1303,VALID,15,VALID,0.539453,
2011-06-21, 00:02:05,VALID,917.546,VALID,0,VALID,96.3829,VALID,0.107441,VALID,20.0718,VALID,15,VALID,0.314844,
2011-06-21, 00:03:05,VALID,917.553,VALID,0,VALID,96.3524,VALID,0.107441,VALID,20.0118,VALID,15,VALID,0.505078,
2011-06-21, 00:04:05,VALID,917.585,VALID,0,VALID,96.4286,VALID,0,VALID,19.9938,VALID,15,VALID,0.777344,
2011-06-21, 00:05:05,VALID,917.562,VALID,0,VALID,96.5048,VALID,0.107441,VALID,20.0328,VALID,15,VALID,0.742578,
2011-06-21, 00:06:05,VALID,917.587,VALID,0,VALID,96.6115,VALID,0,VALID,20.0733,VALID,15,VALID,0.523047,
2011-06-21, 00:07:05,VALID,917.572,VALID,0,VALID,96.6344,VALID,0,VALID,20.0733,VALID,15,VALID,1.0375,
2011-06-21, 00:08:05,VALID,917.567,VALID,0,VALID,96.6192,VALID,0,VALID,20.0733,VALID,15,VALID,0.753906,
2011-06-21, 00:09:05,VALID,917.561,VALID,0,VALID,96.6878,VALID,0,VALID,20.1123,VALID,15,VALID,0.758984,
2011-06-21, 00:10:05,VALID,917.569,VALID,0,VALID,96.703,VALID,0,VALID,20.1318,VALID,15,VALID,1.0082,
2011-06-21, 00:11:05,VALID,917.576,VALID,0,VALID,96.7107,VALID,0,VALID,20.1318,VALID,15,VALID,0.21875,
2011-06-21, 00:12:05,VALID,917.556,VALID,0,VALID,96.703,VALID,0,VALID,20.1513,VALID,15,VALID,0.594141,
2011-06-21, 00:13:05,VALID,917.56,VALID,0,VALID,96.7183,VALID,0,VALID,20.1108,VALID,15,VALID,0.645312,
2011-06-21, 00:14:05,VALID,917.582,VALID,0,VALID,96.6954,VALID,0,VALID,20.1318,VALID,15,VALID,0.509766,
2011-06-21, 00:15:05,VALID,917.585,VALID,0,VALID,96.7183,VALID,0,VALID,20.0733,VALID,15,VALID,0.45625,
2011-06-21, 00:16:05,VALID,917.584,VALID,0,VALID,96.7107,VALID,0,VALID,20.0523,VALID,15,VALID,0.137109,
2011-06-21, 00:17:05,VALID,917.596,VALID,0,VALID,96.7488,VALID,0,VALID,20.0928,VALID,15,VALID,0.271875,
2011-06-21, 00:18:05,VALID,917.604,VALID,0,VALID,96.7564,VALID,0,VALID,20.0538,VALID,15,VALID,0.0324219,
2011-06-21, 00:19:05,VALID,917.604,VALID,0,VALID,96.7564,VALID,0,VALID,20.1123,VALID,15,VALID,0,
2011-06-21, 00:20:05,VALID,917.586,VALID,0,VALID,96.7411,VALID,0,VALID,20.0928,VALID,15,VALID,0.104687,
2011-06-21, 00:21:05,VALID,917.584,VALID,0,VALID,96.7716,VALID,0,VALID,20.0928,VALID,15,VALID,0.0433594,
2011-06-21, 00:22:05,VALID,917.579,VALID,0,VALID,96.7716,VALID,0,VALID,20.1123,VALID,15,VALID,0.355469,
2011-06-21, 00:23:05,VALID,917.555,VALID,0,VALID,96.7869,VALID,0,VALID,20.0928,VALID,15,VALID,0.0210938,
2011-06-21, 00:24:05,VALID,917.558,VALID,0,VALID,96.7945,VALID,0,VALID,20.0928,VALID,15,VALID,0.177344,
2011-06-21, 00:25:05,VALID,917.593,VALID,0,VALID,96.7869,VALID,0,VALID,20.0538,VALID,15,VALID,0.56875,
2011-06-21, 00:26:05,VALID,917.571,VALID,0,VALID,96.8174,VALID,0,VALID,20.0733,VALID,15,VALID,0.678516,
2011-06-21, 00:27:05,VALID,917.585,VALID,0,VALID,96.825,VALID,0,VALID,20.0913,VALID,15,VALID,0.567187,
2011-06-21, 00:28:05,VALID,917.579,VALID,0,VALID,96.8326,VALID,0,VALID,20.0718,VALID,15,VALID,0.251953,
2011-06-21, 00:29:05,VALID,917.591,VALID,0,VALID,96.8326,VALID,0,VALID,20.0733,VALID,15,VALID,0,
2011-06-21, 00:30:05,VALID,917.552,VALID,0,VALID,96.8555,VALID,0,VALID,20.0538,VALID,15,VALID,0,
2011-06-21, 00:31:05,VALID,917.531,VALID,0,VALID,96.8403,VALID,0,VALID,20.0343,VALID,15,VALID,0.0015625,
2011-06-21, 00:32:05,VALID,917.532,VALID,0,VALID,96.8326,VALID,0,VALID,20.0148,VALID,15,VALID,0,
2011-06-21, 00:33:05,VALID,917.497,VALID,0,VALID,96.8326,VALID,0,VALID,19.9953,VALID,15,VALID,0.298828,
2011-06-21, 00:34:05,VALID,917.485,VALID,0,VALID,96.8403,VALID,0,VALID,19.9578,VALID,15,VALID,0.444531,
2011-06-21, 00:35:05,VALID,917.514,VALID,0,VALID,96.8174,VALID,0,VALID,19.9368,VALID,15,VALID,0.313672,
2011-06-21, 00:36:05,VALID,917.479,VALID,0,VALID,96.7945,VALID,0,VALID,19.8393,VALID,15,VALID,0.554297,
2011-06-21, 00:37:05,VALID,917.493,VALID,0,VALID,96.825,VALID,0,VALID,19.8588,VALID,15,VALID,0.626172,
2011-06-21, 00:38:05,VALID,917.488,VALID,0,VALID,96.8784,VALID,0,VALID,19.9563,VALID,15,VALID,0.889453,
2011-06-21, 00:39:05,VALID,917.505,VALID,0,VALID,96.8936,VALID,0,VALID,19.9758,VALID,15,VALID,0.644141,
2011-06-21, 00:40:05,VALID,917.476,VALID,0,VALID,96.9089,VALID,0,VALID,19.9758,VALID,15,VALID,0.772266,
2011-06-21, 00:41:05,VALID,917.479,VALID,0,VALID,96.947,VALID,0,VALID,19.9953,VALID,15,VALID,0.875781,
2011-06-21, 00:42:05,VALID,917.484,VALID,0,VALID,96.9546,VALID,0,VALID,20.0538,VALID,15,VALID,1.04102,
2011-06-21, 00:43:05,VALID,917.5,VALID,0,VALID,96.9546,VALID,0,VALID,20.0538,VALID,15,VALID,1.0332,
2011-06-21, 00:44:05,VALID,917.51,VALID,0,VALID,96.9546,VALID,0,VALID,20.0733,VALID,15,VALID,1.13437,
2011-06-21, 00:45:05,VALID,917.52,VALID,0,VALID,96.9775,VALID,0,VALID,20.0928,VALID,14,VALID,0.905859,
2011-06-21, 00:46:05,VALID,917.516,VALID,0,VALID,96.9775,VALID,0,VALID,20.1123,VALID,15,VALID,0.806641,
2011-06-21, 00:47:05,VALID,917.498,VALID,0,VALID,96.9775,VALID,0,VALID,20.1123,VALID,15,VALID,0.907812,
2011-06-21, 00:48:05,VALID,917.507,VALID,0,VALID,96.9546,VALID,0,VALID,20.1513,VALID,15,VALID,0.866797,
2011-06-21, 00:49:05,VALID,917.519,VALID,0,VALID,96.9927,VALID,0,VALID,20.1513,VALID,15,VALID,0.860937,
2011-06-21, 00:50:05,VALID,917.492,VALID,0,VALID,96.9775,VALID,0,VALID,20.1318,VALID,15,VALID,0.916797,
2011-06-21, 00:51:05,VALID,917.478,VALID,0,VALID,96.9927,VALID,0,VALID,20.1724,VALID,15,VALID,1.00898,
2011-06-21, 00:52:05,VALID,917.51,VALID,0,VALID,96.9851,VALID,0,VALID,20.1513,VALID,15,VALID,0.751562,
2011-06-21, 00:53:05,VALID,917.503,VALID,0,VALID,97.008,VALID,0,VALID,20.1513,VALID,15,VALID,0.798828,
2011-06-21, 00:54:05,VALID,917.528,VALID,0,VALID,96.9927,VALID,0,VALID,20.1513,VALID,15,VALID,0.617578,
2011-06-21, 00:55:05,VALID,917.535,VALID,0,VALID,96.9927,VALID,0,VALID,20.1708,VALID,15,VALID,0.487109,
2011-06-21, 00:56:05,VALID,917.51,VALID,0,VALID,96.9927,VALID,0,VALID,20.1513,VALID,15,VALID,0.351172,
2011-06-21, 00:57:05,VALID,917.53,VALID,0,VALID,97.008,VALID,0,VALID,20.1513,VALID,14,VALID,0.402344,
2011-06-21, 00:58:05,VALID,917.557,VALID,0,VALID,97.0003,VALID,0,VALID,20.1318,VALID,15,VALID,0.462109,
2011-06-21, 00:59:05,VALID,917.549,VALID,0,VALID,97.008,VALID,0,VALID,20.1108,VALID,14,VALID,0.16875,
2011-06-21, 01:00:05,VALID,917.535,VALID,0,VALID,96.9927,VALID,0,VALID,20.1108,VALID,15,VALID,0.303125,
2011-06-21, 01:01:05,VALID,917.511,VALID,0,VALID,97.0232,VALID,0,VALID,20.1513,VALID,15,VALID,0.282031,
2011-06-21, 01:02:05,VALID,917.49,VALID,0,VALID,97.0232,VALID,0,VALID,20.1708,VALID,15,VALID,0.0601562,
2011-06-21, 01:03:05,VALID,917.476,VALID,0,VALID,97.0156,VALID,0,VALID,20.1513,VALID,15,VALID,0.376953,
2011-06-21, 01:04:05,VALID,917.463,VALID,0,VALID,97.008,VALID,0,VALID,20.0928,VALID,15,VALID,0.689062,
2011-06-21, 01:05:05,VALID,917.469,VALID,0,VALID,96.9927,VALID,0,VALID,20.0733,VALID,15,VALID,0.771875,
2011-06-21, 01:06:05,VALID,917.443,VALID,0,VALID,96.9775,VALID,0,VALID,20.0538,VALID,15,VALID,0.725781,
2011-06-21, 01:07:05,VALID,917.418,VALID,0,VALID,96.9927,VALID,0,VALID,20.0538,VALID,14,VALID,0.794531,
2011-06-21, 01:08:05,VALID,917.425,VALID,0,VALID,97.0003,VALID,0,VALID,20.0133,VALID,15,VALID,0.659766,
2011-06-21, 01:09:05,VALID,917.404,VALID,0,VALID,97.008,VALID,0,VALID,19.9938,VALID,15,VALID,0.474219,
2011-06-21, 01:10:05,VALID,917.399,VALID,0,VALID,97.0232,VALID,0,VALID,20.0148,VALID,14,VALID,0.66875,
2011-06-21, 01:11:05,VALID,917.399,VALID,0,VALID,97.008,VALID,0,VALID,19.9953,VALID,15,VALID,0.453516,
2011-06-21, 01:12:05,VALID,917.379,VALID,0,VALID,97.008,VALID,0,VALID,19.9353,VALID,15,VALID,0.613672,
2011-06-21, 01:13:05,VALID,917.359,VALID,0,VALID,97.0156,VALID,0,VALID,19.9368,VALID,15,VALID,0.501172,
2011-06-21, 01:14:05,VALID,917.333,VALID,0,VALID,96.9927,VALID,0,VALID,19.8978,VALID,15,VALID,0.669141,
2011-06-21, 01:15:05,VALID,917.327,VALID,0,VALID,97.0385,VALID,0,VALID,19.8978,VALID,15,VALID,0.733594,
2011-06-21, 01:16:05,VALID,917.29,VALID,0,VALID,97.0156,VALID,0,VALID,19.8588,VALID,15,VALID,0.801953,
2011-06-21, 01:17:05,VALID,917.297,VALID,0,VALID,97.0232,VALID,0,VALID,19.8783,VALID,15,VALID,0.430859,
2011-06-21, 01:18:05,VALID,917.286,VALID,0,VALID,97.0232,VALID,0,VALID,19.8783,VALID,14,VALID,0.381641,
2011-06-21, 01:19:05,VALID,917.282,VALID,0,VALID,97.0156,VALID,0,VALID,19.8783,VALID,14,VALID,0.513281,
2011-06-21, 01:20:05,VALID,917.234,VALID,0,VALID,97.008,VALID,0,VALID,19.8783,VALID,15,VALID,0.580078,
2011-06-21, 01:21:05,VALID,917.231,VALID,0,VALID,97.0232,VALID,0.107441,VALID,19.8768,VALID,15,VALID,0.728906,
2011-06-21, 01:22:05,VALID,917.243,VALID,0,VALID,97.008,VALID,0.107441,VALID,19.8573,VALID,15,VALID,0.613281,
2011-06-21, 01:23:05,VALID,917.239,VALID,0,VALID,97.008,VALID,0,VALID,19.8378,VALID,15,VALID,0.91875,
2011-06-21, 01:24:05,VALID,917.256,VALID,0,VALID,97.0003,VALID,0.107441,VALID,19.8183,VALID,14,VALID,0.961719,
2011-06-21, 01:25:05,VALID,917.211,VALID,0,VALID,97.0003,VALID,0,VALID,19.8183,VALID,14,VALID,0.767969,
2011-06-21, 01:26:05,VALID,917.234,VALID,0,VALID,97.0003,VALID,0.107441,VALID,19.8183,VALID,15,VALID,1.06641,
2011-06-21, 01:27:05,VALID,917.208,VALID,0,VALID,97.008,VALID,0,VALID,19.8378,VALID,15,VALID,0.977344,
2011-06-21, 01:28:05,VALID,917.238,VALID,0,VALID,97.008,VALID,0.107441,VALID,19.8183,VALID,15,VALID,0.889453,
2011-06-21, 01:29:05,VALID,917.25,VALID,0,VALID,97.0308,VALID,0.107441,VALID,19.8378,VALID,15,VALID,0.830078,
2011-06-21, 01:30:05,VALID,917.228,VALID,0,VALID,97.0232,VALID,0,VALID,19.8183,VALID,15,VALID,0.541797,
2011-06-21, 01:31:05,VALID,917.243,VALID,0,VALID,97.0537,VALID,0.107441,VALID,19.8168,VALID,14,VALID,0.773438,
2011-06-21, 01:32:05,VALID,917.217,VALID,0,VALID,97.0308,VALID,0,VALID,19.7988,VALID,14,VALID,0.871484,
2011-06-21, 01:33:05,VALID,917.195,VALID,0,VALID,97.0308,VALID,0.107441,VALID,19.7988,VALID,15,VALID,0.845703,
2011-06-21, 01:34:05,VALID,917.183,VALID,0,VALID,97.069,VALID,0.107441,VALID,19.7988,VALID,14,VALID,0.707422,
2011-06-21, 01:35:05,VALID,917.158,VALID,0,VALID,97.0385,VALID,0.107441,VALID,19.7583,VALID,14,VALID,0.683203,
2011-06-21, 01:36:05,VALID,917.111,VALID,0,VALID,97.0613,VALID,0.107441,VALID,19.7793,VALID,14,VALID,0.603125,
2011-06-21, 01:37:05,VALID,917.115,VALID,0,VALID,97.0385,VALID,0.107441,VALID,19.7778,VALID,15,VALID,0.568359,
2011-06-21, 01:38:05,VALID,917.104,VALID,0,VALID,97.0461,VALID,0.107441,VALID,19.7793,VALID,15,VALID,0.635547,
2011-06-21, 01:39:05,VALID,917.116,VALID,0,VALID,97.069,VALID,0,VALID,19.7403,VALID,15,VALID,0.595703,
2011-06-21, 01:40:05,VALID,917.105,VALID,0,VALID,97.069,VALID,0,VALID,19.7403,VALID,315,VALID,0.91875,
2011-06-21, 01:41:05,VALID,917.128,VALID,0,VALID,97.0613,VALID,0,VALID,19.7598,VALID,256,VALID,0.925,
2011-06-21, 01:42:05,VALID,917.108,VALID,0,VALID,97.0766,VALID,0,VALID,19.7613,VALID,256,VALID,1.00391,
2011-06-21, 01:43:05,VALID,917.103,VALID,0,VALID,97.0766,VALID,0.107441,VALID,19.7598,VALID,256,VALID,0.971875,
2011-06-21, 01:44:05,VALID,917.085,VALID,0,VALID,97.069,VALID,0.107441,VALID,19.7598,VALID,256,VALID,0.756641,
2011-06-21, 01:45:05,VALID,917.08,VALID,0,VALID,97.0994,VALID,0.107441,VALID,19.7793,VALID,256,VALID,0.68125,
2011-06-21, 01:46:05,VALID,917.092,VALID,0,VALID,97.0918,VALID,0.107441,VALID,19.7793,VALID,256,VALID,0.351563,
2011-06-21, 01:47:05,VALID,917.094,VALID,0,VALID,97.0994,VALID,0.107441,VALID,19.7793,VALID,256,VALID,0.505859,
2011-06-21, 01:48:05,VALID,917.065,VALID,0,VALID,97.1147,VALID,0,VALID,19.7793,VALID,256,VALID,0.0867188,
2011-06-21, 01:49:05,VALID,917.073,VALID,0,VALID,97.1147,VALID,0.107441,VALID,19.7793,VALID,256,VALID,0.305859,
2011-06-21, 01:50:05,VALID,917.049,VALID,0,VALID,97.0994,VALID,0,VALID,19.7988,VALID,256,VALID,0.309766,
2011-06-21, 01:51:05,VALID,917.031,VALID,0,VALID,97.1071,VALID,0,VALID,19.7793,VALID,256,VALID,0.245312,
2011-06-21, 01:52:05,VALID,916.985,VALID,0,VALID,97.1071,VALID,0.107441,VALID,19.7598,VALID,256,VALID,0.501562,
2011-06-21, 01:53:05,VALID,917.01,VALID,0,VALID,97.1071,VALID,0,VALID,19.7793,VALID,256,VALID,0.716016,
2011-06-21, 01:54:05,VALID,916.948,VALID,0,VALID,97.1223,VALID,0,VALID,19.7598,VALID,256,VALID,0.439453,
2011-06-21, 01:55:05,VALID,916.939,VALID,0,VALID,97.0994,VALID,0,VALID,19.7598,VALID,256,VALID,0.0675781,
2011-06-21, 01:56:05,VALID,916.899,VALID,0,VALID,97.1223,VALID,0.107441,VALID,19.7793,VALID,256,VALID,0.284375,
2011-06-21, 01:57:05,VALID,916.921,VALID,0,VALID,97.1376,VALID,0.107441,VALID,19.7793,VALID,256,VALID,0.358594,
2011-06-21, 01:58:05,VALID,916.903,VALID,0,VALID,97.1223,VALID,0,VALID,19.7988,VALID,256,VALID,0.210156,
2011-06-21, 01:59:05,VALID,916.917,VALID,0,VALID,97.1299,VALID,0.107441,VALID,19.8198,VALID,256,VALID,0.283203,
2011-06-21, 02:00:05,VALID,916.903,VALID,0,VALID,97.1147,VALID,0.107441,VALID,19.7988,VALID,256,VALID,0.307813,
2011-06-21, 02:01:05,VALID,916.89,VALID,0,VALID,97.1071,VALID,0.107441,VALID,19.7988,VALID,256,VALID,0.349609,
2011-06-21, 02:02:05,VALID,916.898,VALID,0,VALID,97.1299,VALID,0,VALID,19.8378,VALID,256,VALID,0.346875,
2011-06-21, 02:03:05,VALID,916.878,VALID,0,VALID,97.1452,VALID,0,VALID,19.8363,VALID,256,VALID,0.181641,
2011-06-21, 02:04:05,VALID,916.871,VALID,0,VALID,97.0994,VALID,0.107441,VALID,19.7598,VALID,256,VALID,0,
2011-06-21, 02:05:05,VALID,916.86,VALID,0,VALID,97.069,VALID,0,VALID,19.6623,VALID,256,VALID,0,
2011-06-21, 02:06:05,VALID,916.818,VALID,0,VALID,97.0537,VALID,0,VALID,19.6443,VALID,256,VALID,0.000390625,
2011-06-21, 02:07:05,VALID,916.858,VALID,0,VALID,97.0461,VALID,0,VALID,19.6053,VALID,256,VALID,0.180469,
2011-06-21, 02:08:05,VALID,916.835,VALID,0,VALID,97.0308,VALID,0,VALID,19.6053,VALID,256,VALID,0,
2011-06-21, 02:09:05,VALID,916.83,VALID,0,VALID,97.0385,VALID,0,VALID,19.5858,VALID,256,VALID,0,
2011-06-21, 02:10:05,VALID,916.831,VALID,0,VALID,97.0537,VALID,0,VALID,19.5468,VALID,256,VALID,0,
2011-06-21, 02:11:05,VALID,916.852,VALID,0,VALID,97.069,VALID,0,VALID,19.5468,VALID,256,VALID,0,
2011-06-21, 02:12:05,VALID,916.859,VALID,0,VALID,97.069,VALID,0,VALID,19.5663,VALID,256,VALID,0.0101562,
2011-06-21, 02:13:05,VALID,916.857,VALID,0,VALID,97.0842,VALID,0,VALID,19.5858,VALID,256,VALID,0.640625,
2011-06-21, 02:14:05,VALID,916.799,VALID,0,VALID,97.0842,VALID,0,VALID,19.6248,VALID,256,VALID,0.628125,
2011-06-21, 02:15:05,VALID,916.798,VALID,0,VALID,97.1071,VALID,0,VALID,19.5858,VALID,256,VALID,0.722656,
2011-06-21, 02:16:05,VALID,916.758,VALID,0,VALID,97.0842,VALID,0,VALID,19.5273,VALID,256,VALID,0.766016,
2011-06-21, 02:17:05,VALID,916.749,VALID,0,VALID,97.069,VALID,0,VALID,19.4883,VALID,256,VALID,0.380469,
2011-06-21, 02:18:05,VALID,916.754,VALID,0,VALID,97.0994,VALID,0,VALID,19.4493,VALID,256,VALID,0.546094,
2011-06-21, 02:19:05,VALID,916.754,VALID,0,VALID,97.0918,VALID,0,VALID,19.4688,VALID,256,VALID,0.691016,
2011-06-21, 02:20:05,VALID,916.737,VALID,0,VALID,97.0994,VALID,0,VALID,19.4898,VALID,256,VALID,0.725391,
2011-06-21, 02:21:05,VALID,916.751,VALID,0,VALID,97.1071,VALID,0,VALID,19.4493,VALID,256,VALID,1.05117,
2011-06-21, 02:22:05,VALID,916.734,VALID,0,VALID,97.0918,VALID,0,VALID,19.4298,VALID,256,VALID,1.01602,
2011-06-21, 02:23:05,VALID,916.72,VALID,0,VALID,97.0994,VALID,0,VALID,19.4103,VALID,256,VALID,1.21289,
2011-06-21, 02:24:05,VALID,916.704,VALID,0,VALID,97.0994,VALID,0,VALID,19.3713,VALID,256,VALID,0.928125,
2011-06-21, 02:25:05,VALID,916.698,VALID,0,VALID,97.1299,VALID,0,VALID,19.3908,VALID,256,VALID,0.926953,
2011-06-21, 02:26:05,VALID,916.682,VALID,0,VALID,97.1299,VALID,0,VALID,19.3908,VALID,256,VALID,0.830469,
2011-06-21, 02:27:05,VALID,916.667,VALID,0,VALID,97.1452,VALID,0,VALID,19.3323,VALID,256,VALID,0.698828,
2011-06-21, 02:28:05,VALID,916.672,VALID,0,VALID,97.1299,VALID,0,VALID,19.3323,VALID,256,VALID,1.03359,
2011-06-21, 02:29:05,VALID,916.668,VALID,0,VALID,97.1528,VALID,0,VALID,19.3518,VALID,256,VALID,1.07148,
2011-06-21, 02:30:05,VALID,916.65,VALID,0,VALID,97.1376,VALID,0,VALID,19.3128,VALID,256,VALID,0.834766,
2011-06-21, 02:31:05,VALID,916.65,VALID,0,VALID,97.1528,VALID,0,VALID,19.2933,VALID,256,VALID,1.03633,
2011-06-21, 02:32:05,VALID,916.676,VALID,0,VALID,97.1604,VALID,0,VALID,19.2933,VALID,256,VALID,1.05156,
2011-06-21, 02:33:05,VALID,916.711,VALID,0,VALID,97.1528,VALID,0,VALID,19.2738,VALID,256,VALID,0.624219,
2011-06-21, 02:34:05,VALID,916.694,VALID,0,VALID,97.1528,VALID,0,VALID,19.2543,VALID,256,VALID,0.585156,
2011-06-21, 02:35:05,VALID,916.694,VALID,0,VALID,97.1604,VALID,0,VALID,19.2738,VALID,256,VALID,0.908594,
2011-06-21, 02:36:05,VALID,916.686,VALID,0,VALID,97.1681,VALID,0,VALID,19.2723,VALID,256,VALID,0.841016,
2011-06-21, 02:37:05,VALID,916.698,VALID,0,VALID,97.1986,VALID,0,VALID,19.3113,VALID,256,VALID,0.905078,
2011-06-21, 02:38:05,VALID,916.734,VALID,0,VALID,97.1986,VALID,0,VALID,19.3308,VALID,256,VALID,0.98125,
2011-06-21, 02:39:05,VALID,916.716,VALID,0,VALID,97.1986,VALID,0,VALID,19.3713,VALID,256,VALID,0.456641,
2011-06-21, 02:40:05,VALID,916.753,VALID,0,VALID,97.1986,VALID,0,VALID,19.3308,VALID,256,VALID,0.199609,
2011-06-21, 02:41:05,VALID,916.73,VALID,0,VALID,97.2214,VALID,0,VALID,19.3698,VALID,149,VALID,0.797266,
2011-06-21, 02:42:05,VALID,916.731,VALID,0,VALID,97.2062,VALID,0,VALID,19.3908,VALID,149,VALID,0.795703,
2011-06-21, 02:43:05,VALID,916.706,VALID,0,VALID,97.229,VALID,0.107441,VALID,19.3489,VALID,149,VALID,0.692969,
2011-06-21, 02:44:05,VALID,916.712,VALID,0,VALID,97.2138,VALID,0,VALID,19.3893,VALID,122,VALID,1.0418,
2011-06-21, 02:45:04,VALID,916.678,VALID,0,VALID,97.229,VALID,0,VALID,19.3893,VALID,143,VALID,0.7875,
2011-06-21, 02:46:04,VALID,916.626,VALID,0,VALID,97.2519,VALID,0.107441,VALID,19.4088,VALID,129,VALID,0.898438,
2011-06-21, 02:47:04,VALID,916.661,VALID,0,VALID,97.2367,VALID,0,VALID,19.4103,VALID,129,VALID,0.708984,
2011-06-21, 02:48:04,VALID,916.644,VALID,0,VALID,97.2367,VALID,0,VALID,19.4088,VALID,128,VALID,0.872656,
2011-06-21, 02:49:04,VALID,916.616,VALID,0,VALID,97.2214,VALID,0,VALID,19.4088,VALID,125,VALID,0.660937,
2011-06-21, 02:50:04,VALID,916.608,VALID,0,VALID,97.2519,VALID,0,VALID,19.4283,VALID,125,VALID,1.29258,
2011-06-21, 02:51:04,VALID,916.569,VALID,0,VALID,97.2595,VALID,0,VALID,19.4493,VALID,125,VALID,0.769922,
2011-06-21, 02:52:04,VALID,916.549,VALID,0,VALID,97.2519,VALID,0,VALID,19.4493,VALID,125,VALID,0.648828,
2011-06-21, 02:53:04,VALID,916.57,VALID,0,VALID,97.2519,VALID,0,VALID,19.4493,VALID,125,VALID,0.595703,
2011-06-21, 02:54:04,VALID,916.524,VALID,0,VALID,97.2443,VALID,0,VALID,19.4478,VALID,125,VALID,0.264062,
2011-06-21, 02:55:04,VALID,916.54,VALID,0,VALID,97.2748,VALID,0,VALID,19.4298,VALID,125,VALID,1.17422,
2011-06-21, 02:56:04,VALID,916.483,VALID,0,VALID,97.2672,VALID,0,VALID,19.4298,VALID,127,VALID,0.890625,
2011-06-21, 02:57:04,VALID,916.512,VALID,0,VALID,97.2672,VALID,0,VALID,19.4103,VALID,119,VALID,0.858203,
2011-06-21, 02:58:04,VALID,916.504,VALID,0,VALID,97.2748,VALID,0,VALID,19.4298,VALID,120,VALID,0.552344,
2011-06-21, 02:59:04,VALID,916.501,VALID,0,VALID,97.2595,VALID,0,VALID,19.3908,VALID,120,VALID,0.595312,
2011-06-21, 03:00:04,VALID,916.528,VALID,0,VALID,97.2748,VALID,0,VALID,19.4103,VALID,120,VALID,0.740625,
2011-06-21, 03:01:04,VALID,916.512,VALID,0,VALID,97.2748,VALID,0,VALID,19.3908,VALID,120,VALID,0.865234,
2011-06-21, 03:02:04,VALID,916.527,VALID,0,VALID,97.2824,VALID,0,VALID,19.3908,VALID,120,VALID,0.742578,
2011-06-21, 03:03:04,VALID,916.52,VALID,0,VALID,97.2824,VALID,0,VALID,19.4118,VALID,120,VALID,0.460938,
2011-06-21, 03:04:04,VALID,916.518,VALID,0,VALID,97.2824,VALID,0,VALID,19.3713,VALID,120,VALID,1.00312,
2011-06-21, 03:05:04,VALID,916.549,VALID,0,VALID,97.2748,VALID,0,VALID,19.3923,VALID,119,VALID,0.824609,
2011-06-21, 03:06:04,VALID,916.54,VALID,0,VALID,97.3053,VALID,0,VALID,19.3308,VALID,120,VALID,0.591797,
2011-06-21, 03:07:04,VALID,916.571,VALID,0,VALID,97.2824,VALID,0,VALID,19.3518,VALID,120,VALID,0.9375,
2011-06-21, 03:08:04,VALID,916.566,VALID,0,VALID,97.3129,VALID,0,VALID,19.3713,VALID,120,VALID,0.905859,
2011-06-21, 03:09:04,VALID,916.563,VALID,0,VALID,97.3053,VALID,0,VALID,19.3518,VALID,120,VALID,0.513672,
2011-06-21, 03:10:04,VALID,916.584,VALID,0,VALID,97.3053,VALID,0,VALID,19.3323,VALID,120,VALID,0.323438,
2011-06-21, 03:11:04,VALID,916.624,VALID,0,VALID,97.29,VALID,0,VALID,19.3128,VALID,120,VALID,0.291797,
2011-06-21, 03:12:04,VALID,916.609,VALID,0,VALID,97.3129,VALID,0,VALID,19.2918,VALID,120,VALID,0.457812,
2011-06-21, 03:13:04,VALID,916.602,VALID,0,VALID,97.3281,VALID,0,VALID,19.2933,VALID,120,VALID,0.428516,
2011-06-21, 03:14:04,VALID,916.612,VALID,0,VALID,97.3129,VALID,0,VALID,19.2933,VALID,120,VALID,0.455469,
2011-06-21, 03:15:04,VALID,916.606,VALID,0,VALID,97.3205,VALID,0,VALID,19.2738,VALID,120,VALID,0.584766,
2011-06-21, 03:16:04,VALID,916.594,VALID,0,VALID,97.3205,VALID,0,VALID,19.2738,VALID,120,VALID,0.614844,
2011-06-21, 03:17:04,VALID,916.578,VALID,0,VALID,97.3129,VALID,0,VALID,19.2753,VALID,120,VALID,0.401172,
2011-06-21, 03:18:04,VALID,916.58,VALID,0,VALID,97.3205,VALID,0,VALID,19.2543,VALID,120,VALID,0.632813,
2011-06-21, 03:19:04,VALID,916.586,VALID,0,VALID,97.3281,VALID,0,VALID,19.2543,VALID,121,VALID,0.607422,
2011-06-21, 03:20:04,VALID,916.583,VALID,0,VALID,97.3281,VALID,0,VALID,19.2543,VALID,121,VALID,0.666797,
2011-06-21, 03:21:04,VALID,916.605,VALID,0,VALID,97.3053,VALID,0,VALID,19.2348,VALID,121,VALID,0.551562,
2011-06-21, 03:22:04,VALID,916.552,VALID,0,VALID,97.3205,VALID,0,VALID,19.2348,VALID,121,VALID,0.142969,
2011-06-21, 03:23:04,VALID,916.535,VALID,0,VALID,97.3205,VALID,0,VALID,19.2348,VALID,121,VALID,0.4375,
2011-06-21, 03:24:04,VALID,916.523,VALID,0,VALID,97.3281,VALID,0,VALID,19.2334,VALID,121,VALID,0.431641,
2011-06-21, 03:25:04,VALID,916.472,VALID,0,VALID,97.3434,VALID,0,VALID,19.2348,VALID,121,VALID,0.648047,
2011-06-21, 03:26:04,VALID,916.465,VALID,0,VALID,97.3358,VALID,0,VALID,19.2348,VALID,121,VALID,0.4375,
2011-06-21, 03:27:04,VALID,916.445,VALID,0,VALID,97.3358,VALID,0,VALID,19.2153,VALID,121,VALID,0.703906,
2011-06-21, 03:28:04,VALID,916.435,VALID,0,VALID,97.3281,VALID,0,VALID,19.1763,VALID,122,VALID,0.705859,
2011-06-21, 03:29:04,VALID,916.418,VALID,0,VALID,97.3434,VALID,0,VALID,19.1763,VALID,122,VALID,0.554297,
2011-06-21, 03:30:04,VALID,916.439,VALID,0,VALID,97.351,VALID,0,VALID,19.1778,VALID,122,VALID,1.15781,
2011-06-21, 03:31:04,VALID,916.438,VALID,0,VALID,97.351,VALID,0,VALID,19.1568,VALID,122,VALID,0.876953,
2011-06-21, 03:32:04,VALID,916.451,VALID,0,VALID,97.3586,VALID,0,VALID,19.1568,VALID,122,VALID,0.654688,
2011-06-21, 03:33:04,VALID,916.458,VALID,0,VALID,97.3739,VALID,0,VALID,19.1568,VALID,122,VALID,0.699609,
2011-06-21, 03:34:04,VALID,916.508,VALID,0,VALID,97.3586,VALID,0,VALID,19.1178,VALID,122,VALID,0.508594,
2011-06-21, 03:35:04,VALID,916.483,VALID,0,VALID,97.3586,VALID,0,VALID,19.0983,VALID,122,VALID,0.295312,
2011-06-21, 03:36:04,VALID,916.517,VALID,0,VALID,97.3586,VALID,0,VALID,19.0983,VALID,122,VALID,0.469531,
2011-06-21, 03:37:04,VALID,916.531,VALID,0,VALID,97.351,VALID,0,VALID,19.0788,VALID,122,VALID,0.375391,
2011-06-21, 03:38:04,VALID,916.511,VALID,0,VALID,97.351,VALID,0,VALID,19.0983,VALID,122,VALID,0.340234,
2011-06-21, 03:39:04,VALID,916.491,VALID,0,VALID,97.3663,VALID,0,VALID,19.0983,VALID,122,VALID,0.387891,
2011-06-21, 03:40:04,VALID,916.448,VALID,0,VALID,97.3739,VALID,0,VALID,19.0788,VALID,122,VALID,0.349609,
2011-06-21, 03:41:04,VALID,916.412,VALID,0,VALID,97.3739,VALID,0,VALID,19.0788,VALID,122,VALID,0.419531,
2011-06-21, 03:42:04,VALID,916.403,VALID,0,VALID,97.3815,VALID,0,VALID,19.0593,VALID,122,VALID,0.396875,
2011-06-21, 03:43:04,VALID,916.374,VALID,0,VALID,97.3739,VALID,0,VALID,19.0803,VALID,122,VALID,0.524609,
2011-06-21, 03:44:04,VALID,916.308,VALID,0,VALID,97.3739,VALID,0,VALID,19.0983,VALID,122,VALID,0.776563,